Regional Weather Roundup
Issued by NWS Northern Indiana

Home | Current Version | Previous Version | Graphics & Text | Print | Product List | Glossary On
Versions: 1 2 3 4 5 6 7 8 9 10 11 12 13 14 15 16 17 18 19 20 21 22 23 24 25 26 27 28 29 30 31 32 33 34 35 36 37 38 39 40 41 42 43 44 45 46 47 48 49 50
000
ASUS43 KIWX 232210
RWRIWX

KIWX WEATHER ROUNDUP
NATIONAL WEATHER SERVICE NORTHERN INDIANA
600 PM EDT TUE SEP 23 2014

NOTE: "FAIR" INDICATES FEW OR NO CLOUDS BELOW 12,000 FEET WITH NO
SIGNIFICANT WEATHER AND/OR OBSTRUCTIONS TO VISIBILITY.

* THESE STATIONS ARE NOT UNDER NWS QUALITY CONTROL. THEY ALSO MAY NOT
  REPORT WEATHER SUCH AS PRECIPITATION OR FOG.

INZ001>027-232300-
NORTHERN INDIANA

CITY           SKY/WX    TMP DP  RH WIND       PRES   REMARKS
GARY*          MOSUNNY   70  50  49 NE5       30.29F
VALPARAISO     SUNNY     73  47  39 CALM      30.29S
MICHIGAN CITY* SUNNY     66  46  48 N5        30.30S
LAPORTE*       SUNNY     69  50  50 NE5       30.30S
KNOX*          SUNNY     72  47  41 CALM      30.28S
SOUTH BEND     SUNNY     73  48  41 CALM      30.30F
ELKHART*       SUNNY     72  46  40 CALM      30.30F
GOSHEN         SUNNY     72  49  44 CALM      30.30S
MONTICELLO*    SUNNY     71  49  45 E3        30.27F
LOGANSPORT*    SUNNY     70  46  43 NE5       30.30S
ROCHESTER*     SUNNY     73  48  40 CALM      30.30S
WARSAW*        SUNNY     70  50  49 E3        30.30S
ANGOLA*        SUNNY     72  48  43 CALM      30.30S
FORT WAYNE     SUNNY     70  51  51 NE3       30.31F
HUNTINGTON*    SUNNY     69  49  49 N3        30.31S
PERU/GRISSOM   SUNNY     70  51  50 VRB5      30.29F
MARION*        SUNNY     70  45  40 E7        30.31S

$$
INZ028>050-232300-
CENTRAL INDIANA

CITY           SKY/WX    TMP DP  RH WIND       PRES   REMARKS
LAFAYETTE      SUNNY     70  49  47 E6        30.27F
KOKOMO*        SUNNY     70  48  46 E6        30.29F
MUNCIE*        SUNNY     72  44  36 NE7       30.30S
INDIANAPOLIS   MOSUNNY   71  46  40 VRB6      30.27F

$$
MIZ043>046-050>051-056>058-064>065-071>073-077>080-232300-
SOUTHWEST LOWER MICHIGAN

CITY           SKY/WX    TMP DP  RH WIND       PRES   REMARKS
BATTLE CREEK   SUNNY     71  50  47 CALM      30.31S
BENTON HARBOR  SUNNY     65  46  50 NW3       30.30F
COLDWATER*     SUNNY     73  47  40 CALM      30.30S
HILLSDALE*     SUNNY     71  48  43 CALM      30.31S
HOLLAND        SUNNY     69  49  48 W5        30.31F
GRAND RAPIDS   MOSUNNY   72  54  53 W6        30.30F
KALAMAZOO      SUNNY     72  51  47 NW3       30.30F
STURGIS*         N/A     70  48  46 CALM      30.30S
THREE RIVERS*  FAIR      71  51  48 CALM      30.30S

$$
OHZ001>008-015>018-024>025-232300-
NORTHWEST OHIO

CITY           SKY/WX    TMP DP  RH WIND       PRES   REMARKS
WAUSEON*       FAIR      72  46  40 CALM      30.31R
DEFIANCE       SUNNY    N/A N/A N/A NE3       30.31S
FINDLAY        SUNNY     72  45  37 CALM      30.30S
TOLEDO EXPRESS SUNNY     70  46  42 CALM      30.31S
TOLEDO METCALF SUNNY     69  50  50 NE9       30.32R
LIMA           SUNNY     71  47  42 VRB6      30.31S

$$
AND FOR LAKE MICHIGAN COASTAL AND OPEN LAKE BUOY OBSERVATIONS

STATION/POSITION TEMP    WIND        PRES    VSBY  WAVE
                 AIR SEA DIR/SP/G                  HT/PER
                 (F)     (DEG/KT/KT) (MB)    (MI)  (FT/S)
CALUMET HARBOR    67      70/  8/  9 1024.2S
SAINT JOSEPH      66        CALM     1026.8R
SOUTH LAKE BUOY   63 62  170/  6/  8 1025.9F         1
4 MI NW BRIDGMAN  64 65   10/  4/  6   N/A           1
MICHIGAN CITY     64 64   50/  6/  8   N/A           0

$$
&&



USA.gov is the U.S. government's official web portal to all federal, state and local government web resources and services.